Regional Weather Roundup
Issued by NWS

Home | Current Version | Previous Version | Text Only | Print | Product List | Glossary On
Versions: 1 2 3 4 5 6 7 8 9 10 11 12 13 14 15 16 17 18 19 20 21 22 23 24 25 26 27 28
000
ASUS45 KREV 291010
RWRNV
NEVADA REGIONAL WEATHER ROUNDUP
NATIONAL WEATHER SERVICE RENO NV
300 AM PDT SAT APR 29 2017

NOTE: "FAIR" INDICATES FEW OR NO CLOUDS BELOW 12,000 FEET WITH NO
SIGNIFICANT WEATHER AND/OR OBSTRUCTIONS TO VISIBILITY.

NVZ001-003-004-291100-
WESTERN NEVADA

CITY           SKY/WX    TMP DP  RH WIND       PRES   REMARKS
RENO           CLEAR     39  19  44 CALM      30.22F
CARSON CITY    FAIR      32  19  59 CALM      30.23S
MINDEN         FAIR      25  16  68 S3        30.23S
FALLON         CLEAR     32  18  56 NW5       30.20F
LOVELOCK       CLEAR     29  15  56 NE5       30.22S
HAWTHORNE      CLEAR     36  18  48 S6        30.22R
$$

NVZ002-CAZ072-073-291100-
NORTHERN AND CENTRAL SIERRA

CITY           SKY/WX    TMP DP  RH WIND       PRES   REMARKS
S. LAKE TAHOE  CLEAR     37  11  34 MISG      30.17R
TRUCKEE        CLEAR     28  14  54 SW3       30.19S
SQUAW VLY 8000   N/A     27  16  63 NE10        N/A
SUSANVILLE     CLEAR     32  25  74 W5        30.24R
MAMMOTH LAKES  FAIR      27  14  57 W5        30.23S
BRIDGEPORT       N/A     26  11  52 CALM      30.19R
$$

NVZ030-031-036-291100-
NORTHERN NEVADA

CITY           SKY/WX    TMP DP  RH WIND       PRES   REMARKS
ELKO           CLEAR     28  23  81 CALM      30.18S
WINNEMUCCA     CLEAR     23  21  92 SE6       30.23S
WENDOVER       CLEAR     43  24  47 NW20      30.11S
$$

NVZ035-037-291100-
CENTRAL NEVADA

CITY           SKY/WX    TMP DP  RH WIND       PRES   REMARKS
ELY            MOCLDY    28  19  69 N10       30.12S
EUREKA           N/A     22  17  81 S6        30.18R
$$

NVZ013-014-291100-
SOUTH CENTRAL NEVADA

CITY           SKY/WX    TMP DP  RH WIND       PRES   REMARKS
TONOPAH        CLEAR     35  19  52 N15       30.17F
$$

NVZ017-020-022-291100-
SOUTHERN NEVADA

CITY           SKY/WX    TMP DP  RH WIND       PRES   REMARKS
LAS VEGAS      CLEAR     58  17  20 NW14G24   30.00S
N. LAS VEGAS   CLEAR     57  18  21 N20       30.01S
NELLIS AFB     CLEAR     57  19  23 W12G20    30.02R
HENDERSON      CLEAR     55  19  24 N18G24    30.03R
MERCURY        CLEAR     47  19  33 CALM      30.09R
$$




USA.gov is the U.S. government's official web portal to all federal, state and local government web resources and services.